Hourly Weather Roundup
Issued by NWS Central Illinois

Home | Current Version | Previous Version | Text Only | Print | Product List | Glossary On
Versions: 1 2 3 4 5 6 7 8 9 10 11 12 13 14 15 16 17 18 19 20 21 22 23 24 25 26 27 28 29 30 31 32 33 34 35 36 37 38 39 40 41 42 43 44 45 46 47 48 49 50
232
NZUS43 KILX 231810
HWRILX

Area Weather Roundup
National Weather Service Lincoln IL
100 PM CDT SAT SEP 23 2017

NOTE:  "FAIR" indicates few or no clouds below 12,000 feet, with
       no sigificant weather and/or obstructions to visibility.


CITY           SKY/WX    TMP DP  RH WIND       PRES   REMARKS
Bloomington    MOSUNNY   88  66  48 CALM      30.11F HX  90
6HR MIN TEMP:  68; 6HR MAX TEMP:  89;

Champaign      PTSUNNY   92  62  36 E7        30.10F HX  92
6HR MIN TEMP:  67; 6HR MAX TEMP:  92;

Danville       MOSUNNY   90  66  44 SE5       30.08F HX  92
6HR MIN TEMP:  64; 6HR MAX TEMP:  91;

Decatur        MOSUNNY   88  62  41 CALM      30.09F HX  88
6HR MIN TEMP:  64; 6HR MAX TEMP:  91;

Effingham      MOSUNNY   92  64  38 E7        30.09F HX  93
6HR MIN TEMP:  64; 6HR MAX TEMP:  92;

Flora          MOSUNNY   91  61  36 E7        30.08S HX  91
6HR MIN TEMP:  65; 6HR MAX TEMP:  92;

Galesburg      MOSUNNY   89  64  42 CALM      30.08F HX  90
6HR MIN TEMP:  66; 6HR MAX TEMP:  91;

Jacksonville   MOSUNNY   91  64  39 SE7       30.06F HX  92
6HR MIN TEMP:  65; 6HR MAX TEMP:  92;

Lacon          SUNNY     92  65  40 CALM      30.06F HX  94
6HR MIN TEMP:  66; 6HR MAX TEMP:  92;

Lawrenceville  SUNNY     88  63  43 E10       30.08F HX  89
6HR MIN TEMP:  67; 6HR MAX TEMP:  90;

Litchfield     MOSUNNY   87  64  44 E6        30.08F HX  88
6HR MIN TEMP:  67; 6HR MAX TEMP:  88;

$$


CITY           SKY/WX    TMP DP  RH WIND       PRES   REMARKS
Lincoln        MOSUNNY   91  66  43 E6        30.07F HX  94
6HR MIN TEMP:  65; 6HR MAX TEMP:  92;

Macomb         MOSUNNY   91  60  35 CALM      30.09S HX  91
6HR MIN TEMP:  61; 6HR MAX TEMP:  91;

Mattoon        MOSUNNY   90  64  42 E9        30.08F HX  91
6HR MIN TEMP:  67; 6HR MAX TEMP:  91;

Mt Carmel AP   PTSUNNY   88  63  43 SE8       30.07F HX  89
6HR MIN TEMP:  62; 6HR MAX TEMP:  89;

Olney-Noble AP NOT AVBL
Paris AP       PTSUNNY   91  66  42 E6G21     30.10F HX  93
6HR MIN TEMP:  64; 6HR MAX TEMP:  92;

Peoria         MOSUNNY   91  64  40 SW8       30.08F HX  92
6HR MIN TEMP:  68; 6HR MAX TEMP:  91;

Pontiac        PTSUNNY   92  66  42 SW3       30.09F HX  94
6HR MIN TEMP:  66; 6HR MAX TEMP:  92;

Rantoul        SUNNY     90  68  48 N3        30.09F HX  94
6HR MIN TEMP:  69; 6HR MAX TEMP:  90;

Robinson       PTSUNNY   89  66  45 NE8       30.09F HX  91
6HR MIN TEMP:  61; 6HR MAX TEMP:  90;

Springfield    MOSUNNY   93  67  42 VRB7      30.07F HX  96
6HR MIN TEMP:  68; 6HR MAX TEMP:  93;

Taylorville    MOSUNNY   91  64  40 SE8       30.08F HX  92
6HR MIN TEMP:  67; 6HR MAX TEMP:  91;

$$

...REGIONAL REPORTS...


CITY           SKY/WX    TMP DP  RH WIND       PRES   REMARKS
Chicago O`Hare MOSUNNY   93  62  35 S7        30.08F HX  93
Kankakee       SUNNY     89  67  47 SE3       30.10F HX  92
Moline         MOSUNNY   92  64  39 MISG      30.05F HX  93
Mount Sterling SUNNY     89  65  44 S6        30.06F HX  91
Mount Vernon     N/A     89  66  46 E6        30.07F HX  91
Pittsfield     MOSUNNY   93  64  38 E6        30.07F HX  94
Quincy         SUNNY     90  61  37 S8        30.06F HX  90
Rockford       MOSUNNY   91  64  40 SW5       30.09F HX  92
$$


CITY           SKY/WX    TMP DP  RH WIND       PRES   REMARKS
Burlington     SUNNY     91  66  43 VRB5      30.05F HX  93
Cedar Rapids   SUNNY     91  65  41 S7        30.04F HX  93
Des Moines     MOSUNNY   90  66  45 S13       30.00F HX  92
Kirksville     SUNNY     90  66  45 S3        30.06F HX  92
Ottumwa        SUNNY     89  68  49 SE9       30.04F HX  93
St Louis       PTSUNNY   89  64  43 E9        30.07F HX  90
$$


CITY           SKY/WX    TMP DP  RH WIND       PRES   REMARKS
Terre Haute    MOSUNNY   91  64  40 E8        30.09F HX  92
Evansville     SUNNY     86  63  45 NE5       30.08F HX  87
Indianapolis   MOSUNNY   89  65  44 SE5       30.11F HX  91
Lafayette      SUNNY     88  67  49 VRB5      30.09F HX  91
Madison        MOSUNNY   89  64  43 VRB7      30.07F HX  90
Milwaukee      MOSUNNY   89  69  51 SE12      30.09S HX  93
$$






USA.gov is the U.S. government's official web portal to all federal, state and local government web resources and services.